Location: Bj�rn�ya
(74.5000°N, 19.0000°E)
Time: 02:11:22
(UTC+02:00)

Envisat - Pass Details

Date: 02 February 2022
Orbit: 764 x 765 km, 98.2° (Epoch: 21 May)

Event Time Altitude Azimuth Distance (km) Brightness Sun altitude
Rises 05:47:56 0° 28° (NNE) 3,247 6.6 -16.8°
Reaches altitude 10° 05:50:15 10° 30° (NNE) 2,318 5.8 -16.7°
Maximum altitude 05:55:23 76° 116° (ESE) 798 3.2 -16.3°
Drops below altitude 10° 06:00:29 10° 203° (SSW) 2,311 5.3 -16.0°
Sets 06:02:48 0° 205° (SSW) 3,235 6.0 -15.8°
